DW5923 Weather Reports


time (UTC)temp
F
wind
direction
speed
knots
gust
knots
rain 1hr
in
rain 24hr
in
rain mn
in
humidity
%
barometer
mb
20260507211539 57 265 1.7 3.5 0.00 0.16 0.16 76 1013.1
20260507210038 58 265 0.0 1.7 0.00 0.16 0.16 77 1013.1
20260507204537 58 265 0.9 2.6 0.00 0.16 0.16 75 1013.3
20260507203041 58 265 0.0 2.6 0.00 0.16 0.16 72 1013.1
20260507201533 59 265 0.9 3.5 0.00 0.16 0.16 71 1012.8
20260507200038 59 265 1.7 3.5 0.00 0.16 0.16 71 1012.6
20260507194533 59 265 0.9 2.6 0.00 0.16 0.16 70 1012.4
20260507193031 60 265 0.9 3.5 0.00 0.16 0.16 69 1012.2
20260507191532 59 265 2.6 4.3 0.00 0.16 0.16 71 1011.9
20260507190030 58 265 0.9 2.6 0.00 0.16 0.16 72 1011.8
20260507184529 60 266 0.0 2.6 0.00 0.16 0.16 70 1011.5
20260507183029 61 266 0.9 3.5 0.00 0.16 0.16 67 1011.4
20260507181531 61 266 0.0 3.5 0.00 0.16 0.16 68 1011.2
20260507180034 61 265 0.9 3.5 0.00 0.16 0.16 70 1011.1
20260507174527 63 262 3.5 6.1 0.00 0.16 0.16 61 1010.9
20260507173031 63 267 3.5 5.2 0.00 0.16 0.16 62 1010.8
20260507171526 63 263 3.5 6.1 0.00 0.16 0.16 64 1010.8
20260507170025 64 258 4.3 6.1 0.00 0.16 0.16 62 1010.7
20260507164526 66 255 1.7 5.2 0.00 0.17 0.16 61 1010.6
20260507163023 67 252 0.9 2.6 0.00 0.17 0.16 61 1010.6
20260507161523 67 252 0.9 4.3 0.00 0.17 0.16 61 1010.6
20260507160022 67 291 0.9 2.6 0.00 0.17 0.16 61 1010.6
20260507154522 67 289 0.9 3.5 0.00 0.56 0.16 58 1010.7
20260507153020 68 256 0.0 2.6 0.00 0.56 0.16 50 1010.5
20260507151521 69 279 1.7 3.5 0.00 0.56 0.16 49 1010.6
20260507150024 69 247 1.7 4.3 0.00 0.56 0.16 53 1010.6
20260507144524 68 227 3.5 7.8 0.00 0.84 0.16 52 1010.6
20260507143020 69 127 4.3 11.3 0.00 0.84 0.16 50 1010.5
20260507141516 71 40 0.9 6.1 0.00 0.84 0.16 51 1010.7
20260507140015 69 65 1.7 6.1 0.00 0.84 0.16 50 1010.8
20260507134616 67 250 0.9 4.3 0.00 0.85 0.16 52 1011.0
20260507133012 68 159 0.9 3.5 0.00 0.85 0.16 53 1011.0
20260507131510 69 241 0.0 6.1 0.00 0.85 0.16 52 1011.2
20260507130009 68 240 0.0 7.8 0.00 0.90 0.16 53 1011.3
20260507124510 67 212 1.7 5.2 0.00 0.90 0.16 55 1011.4
20260507123009 67 225 1.7 4.3 0.00 0.90 0.16 56 1011.6
20260507121505 67 38 0.9 3.5 0.00 0.90 0.16 55 1011.5
20260507120006 66 269 0.0 1.7 0.00 0.91 0.16 59 1011.7
20260507114506 66 111 0.0 2.6 0.00 0.91 0.16 61 1011.8
20260507113005 65 113 0.0 7.0 0.00 0.91 0.16 60 1011.9
20260507111503 65 125 4.3 7.0 0.00 0.91 0.16 62 1012.0
20260507110100 64 276 0.9 3.5 0.00 0.91 0.16 62 1012.2
20260507104558 63 277 0.9 4.3 0.00 0.91 0.16 63 1012.4
20260507103056 63 95 0.9 8.7 0.00 0.91 0.16 62 1012.4
20260507101603 63 51 2.6 6.1 0.00 0.91 0.16 62 1012.5
20260507100056 62 311 1.7 5.2 0.00 0.91 0.16 62 1012.6
20260507094551 62 59 0.9 5.2 0.00 0.98 0.16 61 1012.7
20260507093049 61 28 2.6 6.1 0.00 0.98 0.16 66 1012.7
20260507091547 60 335 2.6 6.1 0.00 0.98 0.16 69 1012.7
20260507090047 59 323 2.6 7.8 0.00 0.98 0.16 72 1012.7
20260507084553 57 323 2.6 7.8 0.00 1.07 0.16 73 1012.8
20260507083037 57 281 4.3 7.8 0.00 1.07 0.16 76 1012.8
20260507081535 56 256 3.5 10.4 0.00 1.07 0.16 77 1012.7
20260507080031 55 318 4.3 10.4 0.00 1.07 0.16 78 1012.8
20260507074530 55 310 4.3 13.0 0.00 1.08 0.16 78 1012.6
20260507073028 55 329 5.2 12.2 0.00 1.08 0.16 79 1012.5
20260507071525 54 313 6.1 9.6 0.00 1.08 0.16 80 1012.5
20260507070030 54 354 4.3 8.7 0.00 1.08 0.16 80 1012.4
20260507064524 54 15 5.2 9.6 0.00 1.09 0.16 82 1012.4
20260507063019 53 349 5.2 13.0 0.02 1.09 0.16 84 1012.2
20260507061518 51 283 4.3 10.4 0.03 1.09 0.16 86 1012.1
20260507060017 51 310 4.3 10.4 0.03 1.09 0.16 86 1012.1
20260507054520 51 319 4.3 10.4 0.03 1.12 0.16 86 1012.0
20260507053015 52 292 2.6 9.6 0.01 1.10 0.14 85 1011.9
20260507051512 52 261 2.6 8.7 0.00 1.09 0.13 84 1011.7
20260507050010 52 326 3.5 7.8 0.00 1.12 0.13 84 1011.5
20260507044508 52 285 4.3 9.6 0.00 1.12 0.13 85 1011.3
20260507043018 51 315 7.0 12.2 0.00 1.12 0.13 85 1011.2
20260507041508 52 359 6.1 8.7 0.00 1.12 0.13 84 1011.1
20260507040007 52 292 1.7 6.1 0.00 1.12 0.13 83 1010.9
20260507034505 52 325 6.1 13.0 0.00 1.12 0.13 82 1011.0
20260507033004 51 274 5.2 9.6 0.00 1.12 0.13 83 1011.0
20260507031503 52 344 7.0 13.0 0.00 1.12 0.13 84 1011.0
20260507030003 52 322 5.2 11.3 0.00 1.12 0.13 84 1010.9
20260507024508 51 336 4.3 13.0 0.01 1.12 0.13 86 1011.0
20260507023100 51 317 6.1 13.0 0.08 1.12 0.13 86 1011.1
20260507021603 51 302 6.1 11.3 0.11 1.12 0.13 87 1011.1
20260507020112 51 336 7.0 13.0 0.11 1.12 0.13 87 1011.1
20260507014556 51 296 6.1 13.9 0.10 1.12 0.12 86 1010.9
20260507013056 52 300 4.3 9.6 0.04 1.06 0.05 84 1010.8
20260507011550 52 342 3.5 9.6 0.01 1.03 0.02 84 1010.5
20260507010053 51 271 4.3 9.6 0.01 1.03 0.02 85 1010.3
20260507004559 52 313 4.3 12.2 0.02 1.03 0.02 85 1010.5
20260507003049 52 291 9.6 15.6 0.01 1.02 0.01 83 1010.6
20260507001546 53 307 6.1 12.2 0.01 1.02 0.01 82 1010.6
20260507000042 52 326 7.0 13.0 0.01 1.02 0.01 84 1010.6
20260506234544 52 317 6.1 17.4 0.00 1.05 0.00 84 1010.8
20260506233039 52 308 9.6 17.4 0.00 1.05 0.00 83 1010.6
20260506231535 53 337 7.8 13.0 0.00 1.05 0.00 82 1010.6
20260506230044 53 331 5.2 16.5 0.00 1.05 0.00 82 1010.4
20260506224534 53 295 7.8 20.0 0.00 1.21 0.00 83 1010.4
20260506223040 53 314 7.8 14.8 0.00 1.21 0.00 83 1010.5
20260506221526 53 292 7.0 14.8 0.00 1.21 0.00 83 1010.4
20260506220025 53 319 6.1 14.8 0.00 1.21 0.00 83 1010.4
20260506214536 53 327 5.2 9.6 0.00 1.30 1.21 83 1010.2
20260506213023 53 290 4.3 8.7 0.00 1.30 1.21 84 1010.2